contact:dominique.lefevre@mio.osupytheas.fr, maurice.libes@osupytheas.fr, didier.mallarino@osupytheas.fr
Project:EMSO http://www.emso-fr.org/EMSO-France
Depth: 2436.0 m
Title:EMSO Ligure Ouest : Data MII capteur AQUADOPP
Date,Latitude,Longitude,X_East,Y_North,Z_Up,Amplitude_X,Amplitude_Y,Amplitude_Z,Batterie,SoundSpeed,Heading,Pitch,Roll,Pressure,TIS,Speed,Direction
, degrees North, degrees East, m.s-1, m.s-1,m.s-1, 1, 1, 1, Volt, m.s-1, degree, degree, degree, dbar, degree_C, m.s-1, degree
2023-11-14T00:04:03,42.805,6.029,0.01,0.023,-0.01,105.0,104.0,103.0,13.4,1505.2,348.1,-0.8,1.8,2471.491,13.29,0.025,23.5
2023-11-14T00:07:03,42.805,6.029,0.0,0.01,-0.027,104.0,105.0,103.0,13.4,1505.2,337.7,-0.8,1.8,2471.458,13.29,0.01,0.0
2023-11-14T00:10:03,42.805,6.029,-0.005,0.027,-0.026,103.0,104.0,102.0,13.4,1505.2,0.0,-0.7,1.8,2471.477,13.29,0.027,349.5
2023-11-14T00:13:03,42.805,6.029,0.031,0.009,0.001,104.0,106.0,103.0,13.4,1505.2,351.5,-0.8,1.8,2471.496,13.29,0.032,73.8
2023-11-14T00:16:03,42.805,6.029,0.014,0.036,0.014,104.0,104.0,103.0,13.4,1505.2,337.0,-0.8,1.8,2471.484,13.29,0.038,21.2
2023-11-14T00:19:03,42.805,6.029,0.021,0.008,-0.028,105.0,104.0,102.0,13.3,1505.2,342.0,-0.8,1.8,2471.465,13.29,0.022,69.1
2023-11-14T00:22:03,42.805,6.029,0.027,0.034,-0.01,106.0,105.0,102.0,13.3,1505.2,359.0,-0.7,1.8,2471.406,13.29,0.043,38.5
2023-11-14T00:25:03,42.805,6.029,0.024,0.009,-0.029,105.0,105.0,102.0,13.4,1505.2,339.3,-0.8,1.8,2471.468,13.29,0.025,69.4
2023-11-14T00:28:03,42.805,6.029,0.021,0.025,-0.016,104.0,106.0,102.0,13.3,1505.2,352.4,-0.8,1.8,2471.454,13.29,0.032,40.0
2023-11-14T00:31:03,42.805,6.029,0.021,0.019,-0.003,105.0,105.0,102.0,13.3,1505.2,346.4,-0.7,1.8,2471.442,13.29,0.028,47.9
2023-11-14T00:34:03,42.805,6.029,0.011,0.023,-0.033,104.0,105.0,103.0,13.3,1505.2,337.3,-0.8,1.8,2471.441,13.29,0.025,25.6
2023-11-14T00:37:03,42.805,6.029,0.016,0.031,-0.027,104.0,105.0,103.0,13.3,1505.2,343.3,-0.8,1.8,2471.459,13.29,0.034,27.3
2023-11-14T00:40:03,42.805,6.029,0.003,0.028,-0.03,106.0,105.0,102.0,13.4,1505.2,347.6,-0.7,1.8,2471.426,13.29,0.028,6.1
2023-11-14T00:43:03,42.805,6.029,0.022,0.015,-0.016,106.0,103.0,103.0,13.4,1505.2,354.0,-0.8,1.8,2471.457,13.29,0.026,55.7
2023-11-14T00:46:03,42.805,6.029,0.019,0.006,-0.01,104.0,105.0,102.0,13.3,1505.2,355.5,-0.7,1.8,2471.459,13.29,0.019,72.5
2023-11-14T00:49:03,42.805,6.029,0.003,0.043,-0.004,104.0,104.0,103.0,13.3,1505.2,336.6,-0.8,1.8,2471.448,13.29,0.043,4.0
2023-11-14T00:52:03,42.805,6.029,0.015,0.014,-0.028,104.0,104.0,103.0,13.3,1505.2,342.0,-0.8,1.8,2471.441,13.29,0.02,47.0
2023-11-14T00:55:03,42.805,6.029,0.016,0.001,-0.065,104.0,104.0,103.0,13.4,1505.2,1.7,-0.8,1.8,2471.458,13.29,0.016,86.4
2023-11-14T00:58:03,42.805,6.029,0.013,0.002,-0.052,105.0,104.0,102.0,13.4,1505.2,347.3,-0.7,1.8,2471.45,13.29,0.013,81.3
2023-11-14T01:04:03,42.805,6.029,0.024,0.041,-0.007,106.0,106.0,103.0,13.3,1505.2,341.8,-0.7,1.8,2471.481,13.29,0.047,30.3
2023-11-14T01:07:03,42.805,6.029,0.032,0.02,0.015,105.0,104.0,102.0,13.4,1505.2,352.5,-0.8,1.8,2471.481,13.29,0.037,58.0
2023-11-14T01:10:03,42.805,6.029,0.025,0.012,-0.03,104.0,104.0,102.0,13.4,1505.2,339.8,-0.8,1.8,2471.523,13.29,0.027,64.4
2023-11-14T01:13:03,42.805,6.029,0.033,0.009,-0.028,105.0,105.0,102.0,13.4,1505.2,354.9,-0.8,1.8,2471.484,13.29,0.034,74.7
2023-11-14T01:16:03,42.805,6.029,0.01,0.022,-0.021,103.0,105.0,103.0,13.4,1505.2,346.2,-0.8,1.8,2471.471,13.29,0.024,24.4
2023-11-14T01:19:03,42.805,6.029,0.023,0.002,-0.038,104.0,104.0,103.0,13.3,1505.2,342.1,-0.8,1.8,2471.448,13.29,0.023,85.0
2023-11-14T01:22:03,42.805,6.029,0.016,0.018,-0.023,106.0,107.0,103.0,13.4,1505.2,337.7,-0.8,1.8,2471.469,13.29,0.024,41.6
2023-11-14T01:25:03,42.805,6.029,0.028,0.028,0.005,104.0,104.0,102.0,13.4,1505.2,355.6,-0.8,1.8,2471.431,13.29,0.039,45.0
2023-11-14T01:28:03,42.805,6.029,0.016,0.038,-0.006,105.0,105.0,103.0,13.4,1505.2,339.8,-0.8,1.8,2471.426,13.29,0.041,22.8
2023-11-14T01:31:03,42.805,6.029,0.008,0.039,-0.005,105.0,105.0,103.0,13.3,1505.2,338.9,-0.7,1.8,2471.438,13.29,0.039,11.6
2023-11-14T01:34:03,42.805,6.029,0.021,0.022,-0.014,105.0,106.0,103.0,13.4,1505.2,341.5,-0.8,1.8,2471.443,13.29,0.03,43.7
2023-11-14T01:37:03,42.805,6.029,0.012,0.01,-0.037,104.0,104.0,103.0,13.3,1505.2,354.0,-0.8,1.8,2471.453,13.29,0.015,50.2
2023-11-14T01:40:03,42.805,6.029,0.0,0.025,-0.027,105.0,105.0,102.0,13.4,1505.2,351.8,-0.8,1.8,2471.414,13.29,0.025,0.0
2023-11-14T01:43:03,42.805,6.029,0.034,0.015,-0.015,104.0,104.0,102.0,13.4,1505.2,345.7,-0.8,1.8,2471.447,13.29,0.037,66.2
2023-11-14T01:46:03,42.805,6.029,0.006,0.04,-0.027,105.0,104.0,103.0,13.3,1505.2,341.2,-0.8,1.8,2471.429,13.29,0.04,8.5
2023-11-14T01:49:03,42.805,6.029,0.008,0.03,-0.004,106.0,104.0,102.0,13.3,1505.2,336.0,-0.8,1.8,2471.41,13.29,0.031,14.9
2023-11-14T01:52:03,42.805,6.029,0.04,0.011,-0.013,104.0,105.0,103.0,13.4,1505.2,0.9,-0.7,1.8,2471.412,13.3,0.041,74.6
2023-11-14T01:55:03,42.805,6.029,-0.008,0.033,-0.024,105.0,104.0,102.0,13.4,1505.2,339.8,-0.8,1.8,2471.426,13.3,0.033,346.4
2023-11-14T01:58:03,42.805,6.029,0.022,0.016,-0.009,105.0,104.0,102.0,13.4,1505.2,344.5,-0.8,1.8,2471.436,13.3,0.027,54.0
2023-11-14T02:04:03,42.805,6.029,0.001,0.016,-0.036,105.0,104.0,102.0,13.3,1505.2,343.3,-0.7,1.8,2471.491,13.29,0.016,3.6
2023-11-14T02:07:03,42.805,6.029,0.021,0.015,-0.003,104.0,104.0,103.0,13.4,1505.2,345.7,-0.7,1.8,2471.466,13.29,0.025,54.5
2023-11-14T02:10:03,42.805,6.029,0.004,0.025,-0.021,104.0,104.0,101.0,13.4,1505.2,334.2,-0.8,1.8,2471.472,13.29,0.025,9.1
2023-11-14T02:13:03,42.805,6.029,0.035,0.025,-0.014,104.0,104.0,102.0,13.4,1505.2,355.0,-0.8,1.8,2471.465,13.29,0.043,54.5
2023-11-14T02:16:03,42.805,6.029,0.012,0.023,-0.028,104.0,104.0,101.0,13.4,1505.2,351.0,-0.8,1.8,2471.455,13.29,0.025,27.6
2023-11-14T02:19:03,42.805,6.029,0.011,0.024,-0.029,104.0,105.0,103.0,13.3,1505.2,337.1,-0.8,1.8,2471.44,13.3,0.026,24.6
2023-11-14T02:22:03,42.805,6.029,0.004,0.036,0.002,103.0,104.0,103.0,13.4,1505.2,336.6,-0.8,1.8,2471.45,13.3,0.036,6.3
2023-11-14T02:25:03,42.805,6.029,-0.003,0.033,-0.049,104.0,104.0,102.0,13.4,1505.2,354.8,-0.8,1.8,2471.425,13.3,0.033,354.8
2023-11-14T02:28:03,42.805,6.029,0.026,0.03,0.016,105.0,105.0,101.0,13.4,1505.2,348.6,-0.8,1.8,2471.46,13.3,0.039,40.9
2023-11-14T02:31:03,42.805,6.029,0.009,0.022,-0.005,104.0,105.0,103.0,13.3,1505.2,341.5,-0.8,1.8,2471.444,13.3,0.023,22.2
2023-11-14T02:34:03,42.805,6.029,0.004,0.024,-0.02,105.0,105.0,101.0,13.3,1505.2,354.1,-0.8,1.8,2471.422,13.3,0.024,9.5
2023-11-14T02:37:03,42.805,6.029,-0.01,0.001,-0.035,104.0,105.0,102.0,13.4,1505.2,350.5,-0.8,1.9,2471.416,13.3,0.01,275.7
2023-11-14T02:40:03,42.805,6.029,0.022,0.036,-0.018,105.0,104.0,103.0,13.4,1505.2,349.0,-0.7,1.8,2471.43,13.3,0.042,31.4
2023-11-14T02:43:03,42.805,6.029,0.017,0.0,-0.03,104.0,104.0,101.0,13.3,1505.2,355.1,-0.8,1.8,2471.452,13.3,0.017,90.0
2023-11-14T02:46:03,42.805,6.029,0.011,0.0,0.007,105.0,105.0,103.0,13.4,1505.2,344.7,-0.7,1.8,2471.468,13.3,0.011,90.0
2023-11-14T02:49:03,42.805,6.029,0.009,0.021,-0.01,103.0,105.0,104.0,13.4,1505.2,333.8,-0.8,1.8,2471.481,13.3,0.022,23.2
2023-11-14T02:52:03,42.805,6.029,0.014,0.021,-0.043,104.0,104.0,103.0,13.4,1505.2,0.0,-0.8,1.8,2471.483,13.3,0.025,33.7
2023-11-14T02:55:03,42.805,6.029,0.015,0.015,-0.03,104.0,106.0,103.0,13.4,1505.2,342.0,-0.7,1.8,2471.477,13.3,0.021,45.0
2023-11-14T02:58:03,42.805,6.029,0.027,0.022,0.005,105.0,104.0,102.0,13.4,1505.2,350.2,-0.8,1.8,2471.463,13.3,0.034,50.8
2023-11-14T03:04:03,42.805,6.029,0.017,0.024,-0.03,104.0,105.0,102.0,13.4,1505.2,354.2,-0.8,1.8,2471.479,13.29,0.029,35.3
2023-11-14T03:07:03,42.805,6.029,0.01,0.028,0.009,103.0,104.0,102.0,13.3,1505.2,336.3,-0.8,1.8,2471.463,13.29,0.029,19.6
2023-11-14T03:10:03,42.805,6.029,0.007,0.038,0.026,104.0,104.0,102.0,13.4,1505.2,335.6,-0.8,1.8,2471.523,13.29,0.038,10.4
2023-11-14T03:13:03,42.805,6.029,0.019,0.022,-0.002,105.0,105.0,103.0,13.4,1505.2,345.7,-0.8,1.8,2471.508,13.29,0.029,40.8
2023-11-14T03:16:03,42.805,6.029,0.019,0.035,-0.031,104.0,105.0,103.0,13.4,1505.2,345.5,-0.8,1.8,2471.504,13.29,0.039,28.5
2023-11-14T03:19:03,42.805,6.029,0.018,0.013,-0.02,103.0,104.0,103.0,13.4,1505.2,344.8,-0.8,1.8,2471.498,13.29,0.022,54.2
2023-11-14T03:22:03,42.805,6.029,0.017,0.038,-0.014,105.0,105.0,102.0,13.4,1505.2,336.6,-0.8,1.8,2471.463,13.3,0.041,24.1
2023-11-14T03:25:03,42.805,6.029,0.027,0.014,0.014,105.0,107.0,101.0,13.4,1505.2,355.7,-0.8,1.8,2471.515,13.3,0.03,62.6
2023-11-14T03:28:03,42.805,6.029,0.025,0.018,-0.018,105.0,104.0,102.0,13.4,1505.2,345.3,-0.7,1.8,2471.504,13.3,0.03,54.2
2023-11-14T03:31:03,42.805,6.029,0.008,0.028,-0.026,105.0,105.0,102.0,13.4,1505.2,345.9,-0.8,1.8,2471.475,13.3,0.029,15.9
2023-11-14T03:34:03,42.805,6.029,0.014,0.028,-0.025,106.0,104.0,102.0,13.4,1505.2,337.0,-0.8,1.8,2471.476,13.29,0.031,26.6
2023-11-14T03:37:03,42.805,6.029,0.01,0.01,-0.008,105.0,103.0,102.0,13.4,1505.2,355.6,-0.8,1.8,2471.479,13.3,0.014,45.0
2023-11-14T03:40:03,42.805,6.029,0.005,0.007,-0.033,104.0,106.0,102.0,13.4,1505.2,339.8,-0.8,1.8,2471.51,13.3,0.008,35.5
2023-11-14T03:43:03,42.805,6.029,0.011,0.029,-0.014,105.0,105.0,101.0,13.4,1505.2,337.8,-0.8,1.8,2471.496,13.3,0.031,20.8
2023-11-14T03:46:03,42.805,6.029,0.017,0.02,-0.019,103.0,104.0,102.0,13.4,1505.2,343.6,-0.7,1.8,2471.501,13.3,0.026,40.4
2023-11-14T03:49:03,42.805,6.029,0.013,0.02,-0.016,105.0,102.0,103.0,13.4,1505.2,350.3,-0.8,1.8,2471.528,13.3,0.023,33.0
2023-11-14T03:52:03,42.805,6.029,0.015,0.02,-0.007,106.0,104.0,102.0,13.4,1505.2,353.0,-0.8,1.8,2471.52,13.3,0.025,36.9
2023-11-14T03:55:03,42.805,6.029,0.0,-0.006,-0.038,105.0,104.0,102.0,13.4,1505.2,1.7,-0.8,1.8,2471.465,13.3,0.006,180.0
2023-11-14T03:58:03,42.805,6.029,-0.005,0.011,-0.015,104.0,105.0,103.0,13.4,1505.2,340.1,-0.8,1.8,2471.501,13.3,0.012,335.6
2023-11-14T04:04:03,42.805,6.029,0.031,0.008,-0.027,105.0,106.0,103.0,13.4,1505.2,346.1,-0.7,1.8,2471.566,13.29,0.032,75.5
2023-11-14T04:07:03,42.805,6.029,0.006,0.024,-0.017,105.0,104.0,102.0,13.3,1505.2,342.1,-0.8,1.8,2471.528,13.29,0.024,14.0
2023-11-14T04:10:03,42.805,6.029,0.016,0.023,-0.021,104.0,104.0,102.0,13.4,1505.2,337.1,-0.8,1.8,2471.553,13.29,0.028,34.8
2023-11-14T04:13:03,42.805,6.029,0.001,0.026,-0.022,104.0,104.0,102.0,13.4,1505.2,349.9,-0.8,1.8,2471.556,13.29,0.026,2.2
2023-11-14T04:16:03,42.805,6.029,0.01,0.014,-0.014,104.0,105.0,103.0,13.4,1505.2,339.9,-0.8,1.8,2471.53,13.3,0.017,35.5
2023-11-14T04:19:03,42.805,6.029,0.028,0.013,-0.012,105.0,104.0,101.0,13.4,1505.2,351.1,-0.7,1.8,2471.555,13.29,0.03,65.1
2023-11-14T04:22:03,42.805,6.029,0.026,0.03,-0.02,106.0,105.0,102.0,13.4,1505.2,334.5,-0.7,1.8,2471.537,13.29,0.039,40.9
2023-11-14T04:25:03,42.805,6.029,0.044,-0.014,0.013,104.0,105.0,102.0,13.4,1505.2,359.0,-0.8,1.8,2471.55,13.29,0.046,107.6
2023-11-14T04:28:03,42.805,6.029,0.013,0.039,-0.008,104.0,103.0,103.0,13.4,1505.2,342.8,-0.8,1.8,2471.537,13.29,0.041,18.4
2023-11-14T04:31:03,42.805,6.029,0.035,0.007,-0.005,104.0,104.0,102.0,13.4,1505.2,353.4,-0.8,1.8,2471.519,13.29,0.035,78.7
2023-11-14T04:34:03,42.805,6.029,0.009,0.021,-0.036,104.0,104.0,102.0,13.4,1505.2,350.6,-0.8,1.8,2471.545,13.29,0.022,23.2
2023-11-14T04:37:03,42.805,6.029,0.027,0.02,0.0,104.0,104.0,103.0,13.3,1505.2,345.3,-0.8,1.8,2471.564,13.29,0.033,53.5
2023-11-14T04:40:03,42.805,6.029,0.001,0.009,-0.011,105.0,104.0,103.0,13.3,1505.2,345.9,-0.8,1.9,2471.522,13.29,0.009,6.3
2023-11-14T04:43:03,42.805,6.029,0.015,0.026,-0.017,103.0,104.0,102.0,13.3,1505.2,344.8,-0.8,1.8,2471.538,13.29,0.03,30.0
2023-11-14T04:46:03,42.805,6.029,-0.01,0.013,-0.034,104.0,103.0,102.0,13.4,1505.2,350.0,-0.8,1.8,2471.539,13.29,0.016,322.4
2023-11-14T04:49:03,42.805,6.029,0.028,0.005,-0.017,104.0,105.0,102.0,13.4,1505.2,353.4,-0.8,1.8,2471.531,13.29,0.028,79.9
2023-11-14T04:52:03,42.805,6.029,-0.004,0.003,-0.035,105.0,104.0,103.0,13.4,1505.2,333.4,-0.8,1.8,2471.55,13.29,0.005,306.9
2023-11-14T04:55:03,42.805,6.029,0.01,0.005,-0.038,104.0,104.0,103.0,13.3,1505.2,358.0,-0.8,1.8,2471.537,13.29,0.011,63.4
2023-11-14T04:58:03,42.805,6.029,0.0,0.035,-0.027,105.0,102.0,102.0,13.4,1505.2,346.3,-0.8,1.8,2471.564,13.29,0.035,0.0
2023-11-14T05:04:03,42.805,6.029,0.017,0.027,-0.051,105.0,103.0,102.0,13.4,1505.2,340.5,-0.8,1.8,2471.63,13.29,0.031,32.2
2023-11-14T05:07:03,42.805,6.029,0.017,0.03,-0.004,104.0,104.0,102.0,13.4,1505.2,356.1,-0.8,1.8,2471.603,13.29,0.034,29.5
2023-11-14T05:10:03,42.805,6.029,0.047,0.008,-0.014,103.0,105.0,101.0,13.4,1505.2,354.5,-0.8,1.8,2471.627,13.29,0.047,80.3
2023-11-14T05:13:03,42.805,6.029,-0.007,0.019,-0.009,105.0,103.0,101.0,13.3,1505.2,334.1,-0.7,1.8,2471.583,13.29,0.02,339.8
2023-11-14T05:16:03,42.805,6.029,0.012,0.017,-0.034,104.0,104.0,101.0,13.4,1505.2,356.1,-0.8,1.8,2471.597,13.29,0.02,35.2
2023-11-14T05:19:03,42.805,6.029,0.02,0.023,-0.016,103.0,104.0,101.0,13.4,1505.2,352.6,-0.8,1.8,2471.609,13.29,0.03,41.0
2023-11-14T05:22:03,42.805,6.029,0.009,0.013,-0.02,105.0,103.0,102.0,13.3,1505.2,354.9,-0.8,1.8,2471.607,13.29,0.015,34.7
2023-11-14T05:25:03,42.805,6.029,0.013,0.014,0.002,104.0,103.0,102.0,13.3,1505.2,341.8,-0.8,1.8,2471.586,13.29,0.019,42.9
2023-11-14T05:28:03,42.805,6.029,0.022,0.02,-0.022,104.0,105.0,101.0,13.3,1505.2,341.2,-0.8,1.8,2471.604,13.3,0.029,47.7
2023-11-14T05:31:03,42.805,6.029,-0.003,0.021,0.007,105.0,104.0,102.0,13.4,1505.2,334.1,-0.8,1.8,2471.603,13.3,0.021,351.9
2023-11-14T05:34:03,42.805,6.029,0.016,0.02,-0.033,104.0,104.0,102.0,13.4,1505.2,345.5,-0.7,1.8,2471.58,13.3,0.025,38.7
2023-11-14T05:37:03,42.805,6.029,0.001,0.015,-0.037,104.0,103.0,102.0,13.4,1505.2,352.9,-0.7,1.8,2471.608,13.3,0.015,3.8
2023-11-14T05:40:03,42.805,6.029,0.015,0.019,-0.008,104.0,104.0,102.0,13.4,1505.2,338.9,-0.8,1.8,2471.602,13.3,0.024,38.3
2023-11-14T05:43:03,42.805,6.029,0.013,0.015,-0.012,103.0,104.0,102.0,13.4,1505.2,335.2,-0.8,1.8,2471.582,13.3,0.019,40.9
2023-11-14T05:46:03,42.805,6.029,0.018,0.005,-0.037,104.0,104.0,102.0,13.4,1505.2,0.0,-0.8,1.8,2471.595,13.3,0.018,74.5
2023-11-14T05:49:03,42.805,6.029,0.014,0.016,-0.01,105.0,104.0,103.0,13.3,1505.2,341.5,-0.7,1.8,2471.597,13.3,0.021,41.2
2023-11-14T05:52:03,42.805,6.029,0.029,0.0,-0.002,104.0,104.0,102.0,13.4,1505.2,350.0,-0.8,1.8,2471.603,13.3,0.028,90.0
2023-11-14T05:55:03,42.805,6.029,0.012,0.017,-0.019,104.0,105.0,102.0,13.4,1505.2,345.0,-0.8,1.8,2471.633,13.3,0.02,35.2
2023-11-14T05:58:03,42.805,6.029,0.017,-0.012,-0.026,104.0,104.0,102.0,13.4,1505.2,344.6,-0.8,1.8,2471.627,13.3,0.02,125.2
2023-11-14T06:04:03,42.805,6.029,-0.008,0.027,-0.034,104.0,103.0,102.0,13.3,1505.2,346.6,-0.8,1.8,2471.69,13.29,0.028,343.5
2023-11-14T06:07:03,42.805,6.029,0.023,0.012,0.005,105.0,104.0,102.0,13.3,1505.2,351.5,-0.7,1.8,2471.632,13.29,0.025,62.4
2023-11-14T06:10:03,42.805,6.029,0.013,0.009,-0.025,103.0,104.0,102.0,13.4,1505.2,344.2,-0.8,1.8,2471.682,13.29,0.015,55.3
2023-11-14T06:13:03,42.805,6.029,0.013,0.008,-0.023,105.0,103.0,102.0,13.3,1505.2,345.7,-0.8,1.8,2471.685,13.29,0.015,58.4
2023-11-14T06:16:03,42.805,6.029,0.014,0.017,0.003,103.0,105.0,102.0,13.4,1505.2,345.9,-0.8,1.8,2471.668,13.3,0.022,39.5
2023-11-14T06:19:03,42.805,6.029,0.032,-0.001,-0.049,103.0,104.0,102.0,13.3,1505.2,338.3,-0.8,1.8,2471.661,13.3,0.032,91.8
2023-11-14T06:22:03,42.805,6.029,0.027,0.035,-0.007,104.0,104.0,101.0,13.4,1505.2,354.0,-0.8,1.8,2471.643,13.3,0.044,37.7
2023-11-14T06:25:03,42.805,6.029,0.011,0.008,-0.013,103.0,103.0,104.0,13.3,1505.2,353.1,-0.8,1.8,2471.645,13.3,0.013,54.0
2023-11-14T06:28:03,42.805,6.029,0.024,0.019,-0.022,104.0,103.0,103.0,13.4,1505.2,335.9,-0.8,1.8,2471.675,13.29,0.03,51.6
2023-11-14T06:31:03,42.805,6.029,0.021,0.004,-0.004,104.0,104.0,102.0,13.3,1505.2,358.1,-0.7,1.8,2471.66,13.29,0.021,79.2
2023-11-14T06:34:03,42.805,6.029,0.02,-0.01,-0.019,104.0,105.0,101.0,13.3,1505.2,353.0,-0.8,1.8,2471.683,13.29,0.022,116.6
2023-11-14T06:37:03,42.805,6.029,0.017,0.002,-0.022,105.0,104.0,104.0,13.3,1505.2,349.0,-0.8,1.8,2471.632,13.29,0.017,83.3
2023-11-14T06:40:03,42.805,6.029,0.01,0.008,-0.012,104.0,104.0,103.0,13.4,1505.2,342.7,-0.8,1.8,2471.64,13.29,0.012,51.3
2023-11-14T06:43:03,42.805,6.029,0.02,-0.001,-0.03,104.0,104.0,102.0,13.4,1505.2,342.7,-0.7,1.8,2471.691,13.29,0.02,92.9
2023-11-14T06:46:03,42.805,6.029,0.023,-0.009,-0.023,105.0,104.0,101.0,13.3,1505.2,353.8,-0.7,1.8,2471.63,13.3,0.024,111.4
2023-11-14T06:49:03,42.805,6.029,0.014,0.005,-0.012,105.0,104.0,102.0,13.4,1505.2,346.8,-0.8,1.8,2471.662,13.3,0.014,70.4
2023-11-14T06:52:03,42.805,6.029,0.007,0.017,-0.014,104.0,105.0,102.0,13.4,1505.2,345.0,-0.7,1.8,2471.679,13.29,0.018,22.4
2023-11-14T06:55:03,42.805,6.029,0.019,0.014,-0.006,104.0,103.0,102.0,13.4,1505.2,333.0,-0.8,1.8,2471.68,13.29,0.023,53.6
2023-11-14T06:58:03,42.805,6.029,0.038,0.018,0.001,104.0,107.0,102.0,13.4,1505.2,341.3,-0.8,1.8,2471.68,13.29,0.042,64.7
2023-11-14T07:04:03,42.805,6.029,-0.002,0.012,-0.005,103.0,105.0,102.0,13.3,1505.2,349.8,-0.8,1.8,2471.717,13.29,0.012,350.5
2023-11-14T07:07:03,42.805,6.029,-0.002,0.016,0.002,103.0,104.0,103.0,13.3,1505.2,343.6,-0.8,1.8,2471.723,13.29,0.016,352.9
2023-11-14T07:10:03,42.805,6.029,0.017,-0.002,-0.003,104.0,105.0,102.0,13.4,1505.2,359.0,-0.7,1.9,2471.714,13.29,0.017,96.7
2023-11-14T07:13:03,42.805,6.029,0.011,-0.003,-0.017,104.0,107.0,103.0,13.4,1505.2,346.2,-0.7,1.8,2471.7,13.29,0.011,105.3
2023-11-14T07:16:03,42.805,6.029,-0.004,0.014,-0.002,102.0,107.0,102.0,13.3,1505.2,1.7,-0.8,1.8,2471.67,13.29,0.014,344.1
2023-11-14T07:19:03,42.805,6.029,0.008,0.006,-0.037,105.0,103.0,102.0,13.4,1505.2,342.3,-0.8,1.8,2471.665,13.29,0.01,53.1
2023-11-14T07:22:03,42.805,6.029,0.019,0.0,-0.027,105.0,103.0,102.0,13.3,1505.2,340.7,-0.8,1.8,2471.664,13.29,0.019,90.0
2023-11-14T07:25:03,42.805,6.029,0.021,-0.002,-0.02,103.0,105.0,102.0,13.3,1505.2,357.4,-0.7,1.8,2471.654,13.3,0.021,95.4
2023-11-14T07:28:03,42.805,6.029,0.02,0.029,-0.006,104.0,104.0,103.0,13.3,1505.2,340.4,-0.8,1.8,2471.674,13.3,0.035,34.6
2023-11-14T07:31:03,42.805,6.029,0.017,0.004,0.023,104.0,104.0,104.0,13.4,1505.2,346.9,-0.8,1.8,2471.702,13.3,0.017,76.8
2023-11-14T07:34:03,42.805,6.029,0.023,0.028,-0.008,104.0,104.0,103.0,13.4,1505.2,352.6,-0.7,1.9,2471.655,13.3,0.036,39.4
2023-11-14T07:37:03,42.805,6.029,0.022,0.005,-0.009,105.0,105.0,102.0,13.4,1505.2,341.3,-0.8,1.8,2471.669,13.3,0.022,77.2
2023-11-14T07:40:03,42.805,6.029,0.008,0.012,-0.041,103.0,103.0,102.0,13.4,1505.2,336.6,-0.8,1.8,2471.688,13.3,0.014,33.7
2023-11-14T07:43:03,42.805,6.029,0.036,0.001,0.02,104.0,105.0,101.0,13.4,1505.2,354.0,-0.8,1.8,2471.694,13.3,0.036,88.4
2023-11-14T07:46:03,42.805,6.029,0.009,0.022,-0.022,104.0,105.0,101.0,13.3,1505.2,344.5,-0.7,1.8,2471.67,13.3,0.023,22.2
2023-11-14T07:49:03,42.805,6.029,0.018,0.013,0.006,104.0,102.0,103.0,13.4,1505.2,355.6,-0.7,1.8,2471.718,13.3,0.022,54.2
2023-11-14T07:52:03,42.805,6.029,0.016,0.012,-0.026,104.0,105.0,101.0,13.4,1505.2,344.8,-0.8,1.8,2471.706,13.3,0.02,53.1
2023-11-14T07:55:03,42.805,6.029,0.008,0.03,-0.015,104.0,104.0,102.0,13.4,1505.2,342.8,-0.8,1.8,2471.707,13.3,0.031,14.9
2023-11-14T07:58:03,42.805,6.029,0.024,0.02,0.014,104.0,104.0,102.0,13.3,1505.2,359.1,-0.7,1.8,2471.662,13.3,0.031,50.2
2023-11-14T08:04:03,42.805,6.029,0.007,0.015,-0.017,105.0,104.0,101.0,13.4,1505.2,350.0,-0.7,1.8,2471.745,13.3,0.016,25.0
2023-11-14T08:07:03,42.805,6.029,0.035,0.022,-0.022,106.0,103.0,102.0,13.4,1505.2,335.9,-0.8,1.8,2471.712,13.3,0.041,57.8
2023-11-14T08:10:03,42.805,6.029,0.0,0.0,-0.01,104.0,104.0,103.0,13.4,1505.2,359.0,-0.8,1.9,2471.672,13.3,0.0,0.0
2023-11-14T08:13:03,42.805,6.029,0.007,0.033,-0.012,104.0,103.0,102.0,13.4,1505.2,344.0,-0.8,1.8,2471.722,13.3,0.033,12.0
2023-11-14T08:16:03,42.805,6.029,0.007,0.011,-0.018,103.0,104.0,104.0,13.3,1505.2,355.3,-0.8,1.8,2471.701,13.3,0.013,32.5
2023-11-14T08:19:03,42.805,6.029,0.026,0.026,-0.018,103.0,103.0,102.0,13.3,1505.2,334.1,-0.8,1.9,2471.717,13.3,0.036,45.0
2023-11-14T08:22:03,42.805,6.029,0.015,0.01,-0.016,103.0,104.0,102.0,13.3,1505.2,0.0,-0.8,1.8,2471.714,13.3,0.018,56.3
2023-11-14T08:25:03,42.805,6.029,0.007,0.006,-0.014,104.0,105.0,102.0,13.4,1505.2,347.8,-0.8,1.8,2471.67,13.3,0.009,49.4
2023-11-14T08:28:03,42.805,6.029,0.006,0.007,-0.012,104.0,104.0,103.0,13.3,1505.2,336.9,-0.7,1.8,2471.712,13.3,0.009,40.6
2023-11-14T08:31:03,42.805,6.029,0.015,0.009,0.007,105.0,104.0,102.0,13.3,1505.2,347.2,-0.8,1.8,2471.687,13.3,0.017,59.0
2023-11-14T08:34:03,42.805,6.029,0.002,0.013,-0.017,103.0,104.0,102.0,13.3,1505.2,358.3,-0.8,1.8,2471.678,13.3,0.013,8.7
2023-11-14T08:37:03,42.805,6.029,0.0,0.015,-0.048,104.0,106.0,102.0,13.4,1505.2,339.6,-0.8,1.8,2471.666,13.3,0.015,0.0
2023-11-14T08:40:03,42.805,6.029,0.001,0.013,-0.014,103.0,104.0,101.0,13.4,1505.2,340.3,-0.8,1.8,2471.641,13.3,0.013,4.4
2023-11-14T08:43:03,42.805,6.029,0.002,0.013,-0.042,104.0,105.0,101.0,13.4,1505.2,352.7,-0.8,1.8,2471.662,13.3,0.013,8.7
2023-11-14T08:46:03,42.805,6.029,0.009,0.0,-0.049,104.0,104.0,102.0,13.4,1505.2,350.0,-0.7,1.8,2471.687,13.3,0.009,90.0
2023-11-14T08:49:03,42.805,6.029,0.03,0.002,-0.036,104.0,102.0,102.0,13.4,1505.2,348.6,-0.8,1.8,2471.689,13.3,0.03,86.2
2023-11-14T08:52:03,42.805,6.029,-0.001,0.021,-0.022,103.0,104.0,103.0,13.3,1505.2,336.0,-0.7,1.8,2471.666,13.3,0.021,357.3
2023-11-14T08:55:03,42.805,6.029,0.004,-0.016,-0.023,104.0,104.0,102.0,13.4,1505.2,359.1,-0.7,1.8,2471.624,13.3,0.016,166.0
2023-11-14T08:58:03,42.805,6.029,0.013,0.007,-0.017,105.0,103.0,102.0,13.3,1505.2,342.6,-0.8,1.8,2471.653,13.3,0.014,61.7
2023-11-14T09:04:03,42.805,6.029,0.021,0.02,-0.036,105.0,104.0,102.0,13.4,1505.2,337.0,-0.8,1.8,2471.691,13.3,0.028,46.4
2023-11-14T09:07:03,42.805,6.029,0.011,0.015,-0.027,103.0,105.0,102.0,13.4,1505.2,358.2,-0.8,1.8,2471.704,13.29,0.018,36.3
2023-11-14T09:10:03,42.805,6.029,0.007,-0.006,-0.03,103.0,105.0,101.0,13.3,1505.2,349.2,-0.7,1.8,2471.695,13.29,0.009,130.6
2023-11-14T09:13:03,42.805,6.029,0.016,0.008,-0.029,103.0,104.0,101.0,13.4,1505.2,349.3,-0.8,1.8,2471.704,13.29,0.017,63.4
2023-11-14T09:16:03,42.805,6.029,0.021,0.008,-0.017,104.0,102.0,101.0,13.3,1505.2,357.3,-0.8,1.8,2471.662,13.29,0.022,69.1
2023-11-14T09:19:03,42.805,6.029,0.004,0.022,-0.021,104.0,104.0,101.0,13.4,1505.2,339.6,-0.7,1.8,2471.689,13.29,0.022,10.3
2023-11-14T09:22:03,42.805,6.029,0.016,0.0,-0.005,103.0,103.0,101.0,13.3,1505.2,337.5,-0.8,1.8,2471.703,13.3,0.016,90.0
2023-11-14T09:25:03,42.805,6.029,0.006,0.007,-0.04,105.0,104.0,102.0,13.4,1505.2,339.0,-0.8,1.8,2471.655,13.3,0.009,40.6
2023-11-14T09:28:03,42.805,6.029,0.022,0.015,-0.043,105.0,103.0,102.0,13.4,1505.2,353.3,-0.8,1.8,2471.673,13.3,0.026,55.7
2023-11-14T09:31:03,42.805,6.029,0.006,0.024,-0.008,105.0,102.0,102.0,13.4,1505.2,349.6,-0.7,1.8,2471.673,13.3,0.024,14.0
2023-11-14T09:34:03,42.805,6.029,0.04,0.003,-0.027,104.0,102.0,103.0,13.4,1505.2,355.6,-0.8,1.8,2471.679,13.3,0.04,85.7
2023-11-14T09:37:03,42.805,6.029,0.025,0.013,-0.023,104.0,104.0,101.0,13.3,1505.2,347.9,-0.7,1.8,2471.707,13.3,0.028,62.5
2023-11-14T09:40:03,42.805,6.029,0.046,0.013,0.005,104.0,104.0,101.0,13.3,1505.2,351.8,-0.8,1.8,2471.64,13.3,0.047,74.2
2023-11-14T09:43:03,42.805,6.029,0.001,0.003,-0.039,103.0,102.0,103.0,13.4,1505.2,334.2,-0.8,1.8,2471.628,13.3,0.003,18.4
2023-11-14T09:46:03,42.805,6.029,0.001,0.032,-0.017,104.0,104.0,102.0,13.4,1505.2,346.6,-0.8,1.8,2471.653,13.3,0.032,1.8
2023-11-14T09:49:03,42.805,6.029,0.0,0.006,-0.019,106.0,104.0,103.0,13.4,1505.2,352.5,-0.7,1.8,2471.623,13.3,0.006,0.0
2023-11-14T09:52:03,42.805,6.029,-0.017,0.002,-0.016,104.0,105.0,106.0,13.4,1505.2,336.9,-0.7,1.8,2471.676,13.3,0.017,276.7
2023-11-14T09:55:03,42.805,6.029,0.018,-0.029,-0.029,103.0,104.0,102.0,13.3,1505.2,0.8,-0.7,1.8,2471.661,13.3,0.034,148.2
2023-11-14T09:58:03,42.805,6.029,0.017,0.001,-0.027,103.0,104.0,102.0,13.3,1505.2,345.5,-0.8,1.8,2471.647,13.3,0.017,86.6
2023-11-14T10:04:03,42.805,6.029,0.0,0.012,-0.027,105.0,104.0,102.0,13.3,1505.2,348.0,-0.8,1.8,2471.659,13.29,0.012,0.0
2023-11-14T10:07:03,42.805,6.029,0.0,0.016,-0.036,105.0,103.0,103.0,13.4,1505.2,345.3,-0.8,1.8,2471.671,13.3,0.016,0.0
2023-11-14T10:10:03,42.805,6.029,-0.002,0.02,0.009,103.0,103.0,102.0,13.4,1505.2,349.8,-0.8,1.8,2471.64,13.3,0.02,354.3